Year,Month,Day,Hour,Minute,Value (Times are PST for temperature in C)
2016,07,27,00,00,16.90
2016,07,27,00,01,16.90
2016,07,27,00,02,16.90
2016,07,27,00,03,16.90
2016,07,27,00,04,16.80
2016,07,27,00,05,16.80
2016,07,27,00,06,16.80
2016,07,27,00,07,16.80
2016,07,27,00,08,16.80
2016,07,27,00,09,16.80
2016,07,27,00,10,16.70
2016,07,27,00,11,16.70
2016,07,27,00,12,16.70
2016,07,27,00,13,16.70
2016,07,27,00,14,16.70
2016,07,27,00,15,16.70
2016,07,27,00,16,16.70
2016,07,27,00,17,16.70
2016,07,27,00,18,16.70
2016,07,27,00,19,16.70
2016,07,27,00,20,16.70
2016,07,27,00,21,16.70
2016,07,27,00,22,16.60
2016,07,27,00,23,16.60
2016,07,27,00,24,16.60
2016,07,27,00,25,16.60
2016,07,27,00,26,16.60
2016,07,27,00,27,16.60
2016,07,27,00,28,16.60
2016,07,27,00,29,16.60
2016,07,27,00,30,16.60
2016,07,27,00,31,16.60
2016,07,27,00,32,16.50
2016,07,27,00,33,16.50
2016,07,27,00,34,16.50
2016,07,27,00,35,16.50
2016,07,27,00,36,16.40
2016,07,27,00,37,16.50
2016,07,27,00,38,16.50
2016,07,27,00,39,16.40
2016,07,27,00,40,16.40
2016,07,27,00,41,16.40
2016,07,27,00,42,16.40
2016,07,27,00,43,16.40
2016,07,27,00,44,16.40
2016,07,27,00,45,16.40
2016,07,27,00,46,16.40
2016,07,27,00,47,16.40
2016,07,27,00,48,16.40
2016,07,27,00,49,16.40
2016,07,27,00,50,16.40
2016,07,27,00,51,16.40
2016,07,27,00,52,16.30
2016,07,27,00,53,16.30
2016,07,27,00,54,16.30
2016,07,27,00,55,16.30
2016,07,27,00,56,16.30
2016,07,27,00,57,16.20
2016,07,27,00,58,16.20
2016,07,27,00,59,16.20
2016,07,27,01,00,16.10
2016,07,27,01,01,16.10
2016,07,27,01,02,16.10
2016,07,27,01,03,16.00
2016,07,27,01,04,16.00
2016,07,27,01,05,15.90
2016,07,27,01,06,15.90
2016,07,27,01,07,15.90
2016,07,27,01,08,15.90
2016,07,27,01,09,15.80
2016,07,27,01,10,15.80
2016,07,27,01,11,15.80
2016,07,27,01,12,15.80
2016,07,27,01,13,15.70
2016,07,27,01,14,15.70
2016,07,27,01,15,15.70
2016,07,27,01,16,15.70
2016,07,27,01,17,15.70
2016,07,27,01,18,15.60
2016,07,27,01,19,15.60
2016,07,27,01,20,15.60
2016,07,27,01,21,15.60
2016,07,27,01,22,15.60
2016,07,27,01,23,15.60
2016,07,27,01,24,15.60
2016,07,27,01,25,15.60
2016,07,27,01,26,15.50
2016,07,27,01,27,15.50
2016,07,27,01,28,15.50
2016,07,27,01,29,15.40
2016,07,27,01,30,15.40
2016,07,27,01,31,15.40
2016,07,27,01,32,15.40
2016,07,27,01,33,15.40
2016,07,27,01,34,15.30
2016,07,27,01,35,15.30
2016,07,27,01,36,15.30
2016,07,27,01,37,15.30
2016,07,27,01,38,15.30
2016,07,27,01,39,15.30
2016,07,27,01,40,15.30
2016,07,27,01,41,15.20
2016,07,27,01,42,15.20
2016,07,27,01,43,15.20
2016,07,27,01,44,15.20
2016,07,27,01,45,15.20
2016,07,27,01,46,15.20
2016,07,27,01,47,15.20
2016,07,27,01,48,15.20
2016,07,27,01,49,15.20
2016,07,27,01,50,15.20
2016,07,27,01,51,15.20
2016,07,27,01,52,15.20
2016,07,27,01,53,15.20
2016,07,27,01,54,15.20
2016,07,27,01,55,15.20
2016,07,27,01,56,15.20
2016,07,27,01,57,15.20
2016,07,27,01,58,15.20
2016,07,27,01,59,15.20
2016,07,27,02,00,15.20
2016,07,27,02,01,15.20
2016,07,27,02,02,15.20
2016,07,27,02,03,15.20
2016,07,27,02,04,15.20
2016,07,27,02,05,15.20
2016,07,27,02,06,15.20
2016,07,27,02,07,15.10
2016,07,27,02,08,15.10
2016,07,27,02,09,15.10
2016,07,27,02,10,15.10
2016,07,27,02,11,15.10
2016,07,27,02,12,15.10
2016,07,27,02,13,15.10
2016,07,27,02,14,15.10
2016,07,27,02,15,15.10
2016,07,27,02,16,15.10
2016,07,27,02,17,15.10
2016,07,27,02,18,15.10
2016,07,27,02,19,15.10
2016,07,27,02,20,15.10
2016,07,27,02,21,15.00
2016,07,27,02,22,15.00
2016,07,27,02,23,15.00
2016,07,27,02,24,15.00
2016,07,27,02,25,15.00
2016,07,27,02,26,15.00
2016,07,27,02,27,15.00
2016,07,27,02,28,15.00
2016,07,27,02,29,15.00
2016,07,27,02,30,14.90
2016,07,27,02,31,14.90
2016,07,27,02,32,14.90
2016,07,27,02,33,14.90
2016,07,27,02,34,14.90
2016,07,27,02,35,14.90
2016,07,27,02,36,14.90
2016,07,27,02,37,14.90
2016,07,27,02,38,14.90
2016,07,27,02,39,14.90
2016,07,27,02,40,14.90
2016,07,27,02,41,14.90
2016,07,27,02,42,14.90
2016,07,27,02,43,14.90
2016,07,27,02,44,14.90
2016,07,27,02,45,14.90
2016,07,27,02,46,14.90
2016,07,27,02,47,14.90
2016,07,27,13,08,23.60
2016,07,27,13,09,23.60
2016,07,27,13,10,23.60
2016,07,27,13,11,23.60
2016,07,27,13,12,23.60
2016,07,27,13,13,23.60
2016,07,27,13,14,23.50
2016,07,27,13,15,23.40
2016,07,27,13,16,23.40
2016,07,27,13,17,23.30
2016,07,27,13,18,23.30
2016,07,27,13,19,23.30
2016,07,27,13,20,23.20
2016,07,27,13,21,23.20
2016,07,27,13,22,23.20
2016,07,27,13,23,23.30
2016,07,27,13,24,23.30
2016,07,27,13,25,23.40
2016,07,27,13,26,23.60
2016,07,27,13,27,23.80
2016,07,27,13,28,23.90
2016,07,27,13,29,23.90
2016,07,27,13,30,23.90
2016,07,27,13,31,23.90
2016,07,27,13,32,23.90
2016,07,27,13,33,23.90
2016,07,27,13,34,23.90
2016,07,27,13,35,23.90
2016,07,27,13,36,23.90
2016,07,27,13,37,23.90
2016,07,27,13,38,24.00
2016,07,27,13,39,24.10
2016,07,27,13,40,24.10
2016,07,27,13,41,24.20
2016,07,27,13,42,24.30
2016,07,27,13,43,24.30
2016,07,27,13,44,24.30
2016,07,27,13,45,24.30
2016,07,27,13,46,24.30
2016,07,27,13,47,24.20
2016,07,27,13,48,24.20
2016,07,27,13,49,24.10
2016,07,27,13,50,24.10
2016,07,27,13,51,24.10
2016,07,27,13,52,24.00
2016,07,27,13,53,23.90
2016,07,27,13,54,23.90
2016,07,27,13,55,23.80
2016,07,27,13,56,23.80
2016,07,27,13,57,23.80
2016,07,27,13,58,23.80
2016,07,27,13,59,23.80
2016,07,27,14,00,23.60
2016,07,27,14,01,23.50
2016,07,27,14,02,23.50
2016,07,27,14,03,23.50
2016,07,27,14,04,23.50
2016,07,27,14,05,23.50
2016,07,27,14,06,23.50
2016,07,27,14,07,23.40
2016,07,27,14,08,23.40
2016,07,27,14,09,23.50
2016,07,27,14,10,23.50
2016,07,27,14,11,23.60
2016,07,27,14,12,23.60
2016,07,27,14,13,23.60
2016,07,27,14,14,23.60
2016,07,27,14,15,23.70
2016,07,27,14,16,23.70
2016,07,27,14,17,23.80
2016,07,27,14,18,23.90
2016,07,27,14,19,23.90
2016,07,27,14,20,23.90
2016,07,27,14,21,23.80
2016,07,27,14,22,23.80
2016,07,27,14,23,23.80
2016,07,27,14,24,23.80
2016,07,27,14,25,23.80
2016,07,27,14,26,23.80
2016,07,27,14,27,23.80
2016,07,27,14,28,23.90
2016,07,27,14,29,23.90
2016,07,27,14,30,23.90
2016,07,27,14,31,24.00
2016,07,27,14,32,24.10
2016,07,27,14,33,24.20
2016,07,27,14,34,24.30
2016,07,27,14,35,24.40
2016,07,27,14,36,24.60
2016,07,27,14,37,24.60
2016,07,27,14,38,24.60
2016,07,27,14,39,24.60
2016,07,27,14,40,24.50
2016,07,27,14,41,24.50
2016,07,27,14,42,24.50
2016,07,27,14,43,24.50
2016,07,27,14,44,24.50
2016,07,27,14,45,24.50
2016,07,27,14,46,24.50
2016,07,27,14,47,24.60
2016,07,27,14,48,24.60
2016,07,27,14,49,24.70
2016,07,27,14,50,24.60
2016,07,27,14,51,24.50
2016,07,27,14,52,24.50
2016,07,27,14,53,24.60
2016,07,27,14,54,24.70
2016,07,27,14,55,24.70
2016,07,27,14,56,24.70
2016,07,27,14,57,24.60
2016,07,27,14,58,24.60
2016,07,27,14,59,24.70
2016,07,27,15,00,24.70
2016,07,27,15,01,24.80
2016,07,27,15,02,24.80
2016,07,27,15,03,24.80
2016,07,27,15,04,24.80
2016,07,27,15,05,24.80
2016,07,27,15,06,24.80
2016,07,27,15,07,24.80
2016,07,27,15,08,24.80
2016,07,27,15,09,24.80
2016,07,27,15,10,24.80
2016,07,27,15,11,24.80
2016,07,27,15,12,24.80
2016,07,27,15,13,24.80
2016,07,27,15,14,24.80
2016,07,27,15,15,24.70
2016,07,27,15,16,24.70
2016,07,27,15,17,24.70
2016,07,27,15,18,24.60
2016,07,27,15,19,24.60
2016,07,27,15,20,24.60
2016,07,27,15,21,24.60
2016,07,27,15,22,24.60
2016,07,27,15,23,24.60
2016,07,27,15,24,24.60
2016,07,27,15,25,24.70
2016,07,27,15,26,24.70
2016,07,27,15,27,24.70
2016,07,27,15,28,24.70
2016,07,27,15,29,24.70
2016,07,27,15,30,24.70
2016,07,27,15,31,24.60
2016,07,27,15,32,24.50
2016,07,27,15,33,24.50
2016,07,27,15,34,24.40
2016,07,27,15,35,24.40
2016,07,27,15,36,24.20
2016,07,27,15,37,24.20
2016,07,27,15,38,24.20
2016,07,27,15,39,24.20
2016,07,27,15,40,24.30
2016,07,27,15,41,24.30
2016,07,27,15,42,24.30
2016,07,27,15,43,24.30
2016,07,27,15,44,24.20
2016,07,27,15,45,24.20
2016,07,27,15,46,24.10
2016,07,27,15,47,24.00
2016,07,27,15,48,23.90
2016,07,27,15,49,24.00
2016,07,27,15,50,24.10
2016,07,27,15,51,24.10
2016,07,27,15,52,24.00
2016,07,27,15,53,23.90
2016,07,27,15,54,23.90
2016,07,27,15,55,23.80
2016,07,27,15,56,23.90
2016,07,27,15,57,23.90
2016,07,27,15,58,24.10
2016,07,27,15,59,24.10
2016,07,27,16,00,24.10
2016,07,27,16,01,24.00
2016,07,27,16,02,24.00
2016,07,27,16,03,23.90
2016,07,27,16,04,23.90
2016,07,27,16,05,23.90
2016,07,27,16,06,23.90
2016,07,27,16,07,23.90
2016,07,27,16,08,23.90
2016,07,27,16,09,23.90
2016,07,27,16,10,23.90
2016,07,27,16,11,23.90
2016,07,27,16,12,23.90
2016,07,27,16,13,23.90
2016,07,27,16,14,23.90
2016,07,27,16,15,23.90
2016,07,27,16,16,24.00
2016,07,27,16,17,24.00
2016,07,27,16,18,24.10
2016,07,27,16,19,24.10
2016,07,27,16,20,24.10
2016,07,27,16,21,24.10
2016,07,27,16,22,24.10
2016,07,27,16,23,24.00
2016,07,27,16,24,24.00
2016,07,27,16,25,24.10
2016,07,27,16,26,24.10
2016,07,27,16,27,24.20
2016,07,27,16,28,24.30
2016,07,27,16,29,24.30
2016,07,27,16,30,24.30
2016,07,27,16,31,24.30
2016,07,27,16,32,24.30
2016,07,27,16,33,24.20
2016,07,27,16,34,24.20
2016,07,27,16,35,24.10
2016,07,27,16,36,24.10
2016,07,27,16,37,24.10
2016,07,27,16,38,24.10
2016,07,27,16,39,24.10
2016,07,27,16,40,24.10
2016,07,27,16,41,24.10
2016,07,27,16,42,24.00
2016,07,27,16,43,24.00
2016,07,27,16,44,24.00
2016,07,27,16,45,23.90
2016,07,27,16,46,23.90
2016,07,27,16,47,23.80
2016,07,27,16,48,23.80
2016,07,27,16,49,23.80
2016,07,27,16,50,23.80
2016,07,27,16,51,23.70
2016,07,27,16,52,23.80
2016,07,27,16,53,23.70
2016,07,27,16,54,23.60
2016,07,27,16,55,23.60
2016,07,27,16,56,23.40
2016,07,27,16,57,23.40
2016,07,27,16,58,23.40
2016,07,27,16,59,23.30
2016,07,27,17,00,23.30
2016,07,27,17,01,23.30
2016,07,27,17,02,23.20
2016,07,27,17,03,23.20
2016,07,27,17,04,23.20
2016,07,27,17,05,23.20
2016,07,27,17,06,23.20
2016,07,27,17,07,23.20
2016,07,27,17,08,23.20
2016,07,27,17,09,23.30
2016,07,27,17,10,23.30
2016,07,27,17,11,23.30
2016,07,27,17,12,23.30
2016,07,27,17,13,23.20
2016,07,27,17,14,23.20
2016,07,27,17,15,23.20
2016,07,27,17,16,23.20
2016,07,27,17,17,23.20
2016,07,27,17,18,23.30
2016,07,27,17,19,23.40
2016,07,27,17,20,23.40
2016,07,27,17,21,23.40
2016,07,27,17,22,23.40
2016,07,27,17,23,23.50
2016,07,27,17,24,23.50
2016,07,27,17,25,23.60
2016,07,27,17,26,23.70
2016,07,27,17,27,23.80
2016,07,27,17,28,24.00
2016,07,27,17,29,24.10
2016,07,27,17,30,24.20
2016,07,27,17,31,24.30
2016,07,27,17,32,24.20
2016,07,27,17,33,24.30
2016,07,27,17,34,24.30
2016,07,27,17,35,24.30
2016,07,27,17,36,24.30
2016,07,27,17,37,24.30
2016,07,27,17,38,24.30
2016,07,27,17,39,24.30
2016,07,27,17,40,24.30
2016,07,27,17,41,24.30
2016,07,27,17,42,24.30
2016,07,27,17,43,24.30
2016,07,27,17,44,24.30
2016,07,27,17,45,24.30
2016,07,27,17,46,24.30
2016,07,27,17,47,24.30
2016,07,27,17,48,24.30
2016,07,27,17,49,24.30
2016,07,27,17,50,24.30
2016,07,27,17,51,24.30
2016,07,27,17,52,24.30
2016,07,27,17,53,24.30
2016,07,27,17,54,24.30
2016,07,27,17,55,24.30
2016,07,27,17,56,24.30
2016,07,27,17,57,24.30
2016,07,27,17,58,24.30
2016,07,27,17,59,24.30
2016,07,27,18,00,24.30
2016,07,27,18,01,24.30
2016,07,27,18,02,24.40
2016,07,27,18,03,24.40
2016,07,27,18,04,24.40
2016,07,27,18,05,24.40
2016,07,27,18,06,24.40
2016,07,27,18,07,24.30
2016,07,27,18,08,24.30
2016,07,27,18,09,24.30
2016,07,27,18,10,24.40
2016,07,27,18,11,24.40
2016,07,27,18,12,24.40
2016,07,27,18,13,24.40
2016,07,27,18,14,24.40
2016,07,27,18,15,24.40
2016,07,27,18,16,24.50
2016,07,27,18,17,24.50
2016,07,27,18,18,24.50
2016,07,27,18,19,24.50
2016,07,27,18,20,24.50
2016,07,27,18,21,24.40
2016,07,27,18,22,24.30
2016,07,27,18,23,24.20
2016,07,27,18,24,24.20
2016,07,27,18,25,24.10
2016,07,27,18,26,24.10
2016,07,27,18,27,24.10
2016,07,27,18,28,24.00
2016,07,27,18,29,24.00
2016,07,27,18,30,23.90
2016,07,27,18,31,23.90
2016,07,27,18,32,23.90
2016,07,27,18,33,23.90
2016,07,27,18,34,23.90
2016,07,27,18,35,23.90
2016,07,27,18,36,23.90
2016,07,27,18,37,23.90
2016,07,27,18,38,23.90
2016,07,27,18,39,23.90
2016,07,27,18,40,23.80
2016,07,27,18,41,23.80
2016,07,27,18,42,23.80
2016,07,27,18,43,23.80
2016,07,27,18,44,23.70
2016,07,27,18,45,23.70
2016,07,27,18,46,23.70
2016,07,27,18,47,23.70
2016,07,27,18,48,23.70
2016,07,27,18,49,23.70
2016,07,27,18,50,23.60
2016,07,27,18,51,23.60
2016,07,27,18,52,23.60
2016,07,27,18,53,23.60
2016,07,27,18,54,23.60
2016,07,27,18,55,23.60
2016,07,27,18,56,23.60
2016,07,27,18,57,23.70
2016,07,27,18,58,23.70
2016,07,27,18,59,23.70
2016,07,27,19,00,23.70
2016,07,27,19,01,23.80
2016,07,27,19,02,23.80
2016,07,27,19,03,23.80
2016,07,27,19,04,23.80
2016,07,27,19,05,23.80
2016,07,27,19,06,23.80
2016,07,27,19,07,23.70
2016,07,27,19,08,23.70
2016,07,27,19,09,23.70
2016,07,27,19,10,23.80
2016,07,27,19,11,23.80
2016,07,27,19,12,23.80
2016,07,27,19,13,23.80
2016,07,27,19,14,23.90
2016,07,27,19,15,23.90
2016,07,27,19,16,23.90
2016,07,27,19,17,23.90
2016,07,27,19,18,23.90
2016,07,27,19,19,23.90
2016,07,27,19,20,23.90
2016,07,27,19,21,24.00
2016,07,27,19,22,24.00
2016,07,27,19,23,24.00
2016,07,27,19,24,24.00
2016,07,27,19,25,24.00
2016,07,27,19,26,24.00
2016,07,27,19,27,23.90
2016,07,27,19,28,23.90
2016,07,27,19,29,23.90
2016,07,27,19,30,24.00
2016,07,27,19,31,24.00
2016,07,27,19,32,24.10
2016,07,27,19,33,24.10
2016,07,27,19,34,24.10
2016,07,27,19,35,24.20
2016,07,27,19,36,24.20
2016,07,27,19,37,24.20
2016,07,27,19,38,24.20
2016,07,27,19,39,24.20
2016,07,27,19,40,24.20
2016,07,27,19,41,24.20
2016,07,27,19,42,24.20
2016,07,27,19,43,24.20
2016,07,27,19,44,24.20
2016,07,27,19,45,24.20
2016,07,27,19,46,24.20
2016,07,27,19,47,24.20
2016,07,27,19,48,24.20
2016,07,27,19,49,24.20
2016,07,27,19,50,24.20
2016,07,27,19,51,24.20
2016,07,27,19,52,24.20
2016,07,27,19,53,24.20
2016,07,27,19,54,24.20
2016,07,27,19,55,24.20
2016,07,27,19,56,24.20
2016,07,27,19,57,24.20
2016,07,27,19,58,24.20
2016,07,27,19,59,24.30
2016,07,27,20,00,24.30
2016,07,27,20,01,24.30
2016,07,27,20,02,24.40
2016,07,27,20,03,24.40
2016,07,27,20,04,24.40
2016,07,27,20,05,24.40
2016,07,27,20,06,24.40
2016,07,27,20,07,24.50
2016,07,27,20,08,24.50
2016,07,27,20,09,24.50
2016,07,27,20,10,24.50
2016,07,27,20,11,24.50
2016,07,27,20,12,24.50
2016,07,27,20,13,24.50
2016,07,27,20,14,24.50
2016,07,27,20,15,24.40
2016,07,27,20,16,24.40
2016,07,27,20,17,24.40
2016,07,27,20,18,24.40
2016,07,27,20,19,24.40
2016,07,27,20,20,24.30
2016,07,27,20,21,24.30
2016,07,27,20,22,24.30
2016,07,27,20,23,24.30
2016,07,27,20,24,24.30
2016,07,27,20,25,24.30
2016,07,27,20,26,24.30
2016,07,27,20,27,24.30
2016,07,27,20,28,24.30
2016,07,27,20,29,24.30
2016,07,27,20,30,24.30
2016,07,27,20,31,24.30
2016,07,27,20,32,24.30
2016,07,27,20,33,24.30
2016,07,27,20,34,24.20
2016,07,27,20,35,24.20
2016,07,27,20,36,24.20
2016,07,27,20,37,24.20
2016,07,27,20,38,24.10
2016,07,27,20,39,24.10
2016,07,27,20,40,24.00
2016,07,27,20,41,24.00
2016,07,27,20,42,23.90
2016,07,27,20,43,23.90
2016,07,27,20,44,23.80
2016,07,27,20,45,23.80
2016,07,27,20,46,23.80
2016,07,27,20,47,23.80
2016,07,27,20,48,23.70
2016,07,27,20,49,23.70
2016,07,27,20,50,23.60
2016,07,27,20,51,23.60
2016,07,27,20,52,23.60
2016,07,27,20,53,23.60
2016,07,27,20,54,23.60
2016,07,27,20,55,23.60
2016,07,27,20,56,23.50
2016,07,27,20,57,23.50
2016,07,27,20,58,23.50
2016,07,27,20,59,23.50
2016,07,27,21,00,23.50
2016,07,27,21,01,23.40
2016,07,27,21,02,23.40
2016,07,27,21,03,23.40
2016,07,27,21,04,23.40
2016,07,27,21,05,23.40
2016,07,27,21,06,23.40
2016,07,27,21,07,23.40
2016,07,27,21,08,23.40
2016,07,27,21,09,23.30
2016,07,27,21,10,23.30
2016,07,27,21,11,23.30
2016,07,27,21,12,23.30
2016,07,27,21,13,23.30
2016,07,27,21,14,23.30
2016,07,27,21,15,23.20
2016,07,27,21,16,23.20
2016,07,27,21,17,23.20
2016,07,27,21,18,23.20
2016,07,27,21,19,23.10
2016,07,27,21,20,23.10
2016,07,27,21,21,23.10
2016,07,27,21,22,23.00
2016,07,27,21,23,22.90
2016,07,27,21,24,22.80
2016,07,27,21,25,22.80
2016,07,27,21,26,22.80
2016,07,27,21,27,22.70
2016,07,27,21,28,22.70
2016,07,27,21,29,22.60
2016,07,27,21,30,22.60
2016,07,27,21,31,22.60
2016,07,27,21,32,22.50
2016,07,27,21,33,22.40
2016,07,27,21,34,22.40
2016,07,27,21,35,22.40
2016,07,27,21,36,22.40
2016,07,27,21,37,22.30
2016,07,27,21,38,22.30
2016,07,27,21,39,22.20
2016,07,27,21,40,22.20
2016,07,27,21,41,22.10
2016,07,27,21,42,22.10
2016,07,27,21,43,22.10
2016,07,27,21,44,22.00
2016,07,27,21,45,21.90
2016,07,27,21,46,21.90
2016,07,27,21,47,21.90
2016,07,27,21,48,21.80
2016,07,27,21,49,21.80
2016,07,27,21,50,21.80
2016,07,27,21,51,21.70
2016,07,27,21,52,21.70
2016,07,27,21,53,21.70
2016,07,27,21,54,21.70
2016,07,27,21,55,21.70
2016,07,27,21,56,21.60
2016,07,27,21,57,21.60
2016,07,27,21,58,21.60
2016,07,27,21,59,21.60
2016,07,27,22,00,21.60
2016,07,27,22,01,21.60
2016,07,27,22,02,21.50
2016,07,27,22,03,21.50
2016,07,27,22,04,21.50
2016,07,27,22,05,21.50
2016,07,27,22,06,21.40
2016,07,27,22,07,21.40
2016,07,27,22,08,21.40
2016,07,27,22,09,21.40
2016,07,27,22,10,21.40
2016,07,27,22,11,21.40
2016,07,27,22,12,21.40
2016,07,27,22,13,21.30
2016,07,27,22,14,21.30
2016,07,27,22,15,21.30
2016,07,27,22,16,21.30
2016,07,27,22,17,21.20
2016,07,27,22,18,21.20
2016,07,27,22,19,21.20
2016,07,27,22,20,21.20
2016,07,27,22,21,21.20
2016,07,27,22,22,21.20
2016,07,27,22,23,21.20
2016,07,27,22,24,21.10
2016,07,27,22,25,21.10
2016,07,27,22,26,21.10
2016,07,27,22,27,21.10
2016,07,27,22,28,21.00
2016,07,27,22,29,21.00
2016,07,27,22,30,21.00
2016,07,27,22,31,20.90
2016,07,27,22,32,20.90
2016,07,27,22,33,20.90
2016,07,27,22,34,20.90
2016,07,27,22,35,20.90
2016,07,27,22,36,20.80
2016,07,27,22,37,20.80
2016,07,27,22,38,20.80
2016,07,27,22,39,20.80
2016,07,27,22,40,20.80
2016,07,27,22,41,20.70
2016,07,27,22,42,20.70
2016,07,27,22,43,20.70
2016,07,27,22,44,20.70
2016,07,27,22,45,20.60
2016,07,27,22,46,20.60
2016,07,27,22,47,20.60
2016,07,27,22,48,20.60
2016,07,27,22,49,20.50
2016,07,27,22,50,20.50
2016,07,27,22,51,20.40
2016,07,27,22,52,20.40
2016,07,27,22,53,20.40
2016,07,27,22,54,20.30
2016,07,27,22,55,20.30
2016,07,27,22,56,20.30
2016,07,27,22,57,20.20
2016,07,27,22,58,20.20
2016,07,27,22,59,20.20
2016,07,27,23,00,20.10
2016,07,27,23,01,20.10
2016,07,27,23,02,20.10
2016,07,27,23,03,20.00
2016,07,27,23,04,20.00
2016,07,27,23,05,19.90
2016,07,27,23,06,19.90
2016,07,27,23,07,19.90
2016,07,27,23,08,19.90
2016,07,27,23,09,19.90
2016,07,27,23,10,19.90
2016,07,27,23,11,19.80
2016,07,27,23,12,19.80
2016,07,27,23,13,19.80
2016,07,27,23,14,19.80
2016,07,27,23,15,19.70
2016,07,27,23,16,19.70
2016,07,27,23,17,19.70
2016,07,27,23,18,19.70
2016,07,27,23,19,19.60
2016,07,27,23,20,19.60
2016,07,27,23,21,19.60
2016,07,27,23,22,19.60
2016,07,27,23,23,19.60
2016,07,27,23,24,19.50
2016,07,27,23,25,19.50
2016,07,27,23,26,19.50
2016,07,27,23,27,19.40
2016,07,27,23,28,19.40
2016,07,27,23,29,19.40
2016,07,27,23,30,19.40
2016,07,27,23,31,19.40
2016,07,27,23,32,19.40
2016,07,27,23,33,19.30
2016,07,27,23,34,19.30
2016,07,27,23,35,19.30
2016,07,27,23,36,19.30
2016,07,27,23,37,19.30
2016,07,27,23,38,19.20
2016,07,27,23,39,19.20
2016,07,27,23,40,19.20
2016,07,27,23,41,19.20
2016,07,27,23,42,19.10
2016,07,27,23,43,19.10
2016,07,27,23,44,19.10
2016,07,27,23,45,19.00
2016,07,27,23,46,19.00
2016,07,27,23,47,18.90
2016,07,27,23,48,18.90
2016,07,27,23,49,18.90
2016,07,27,23,50,18.90
2016,07,27,23,51,18.90
2016,07,27,23,52,18.80
2016,07,27,23,53,18.80
2016,07,27,23,54,18.80
2016,07,27,23,55,18.80
2016,07,27,23,56,18.80
2016,07,27,23,57,18.80
2016,07,27,23,58,18.70
2016,07,27,23,59,18.70
